Location: Sungai Bunut
(2.6333°N, 113.7333°E)
Time: 14:54:53
(UTC+00:00)

Explorer 11/Cluster Stage 4 - All Passes

Search period start: 03 December 2023 00:00
Search period end: 13 December 2023 00:00
Orbit: 465 x 1227 km, 28.8° (Epoch: 03 December)

Date Brightness Start Highest point End Pass type
(mag) Time Alt. Az. Time Alt. Az. Time Alt. Az.
03 Dec - 00:25:55 10° S 00:30:44 17° SSE 00:35:38 10° ESE daylight
03 Dec - 02:12:20 10° SW 02:20:09 52° SSE 02:27:37 10° ENE daylight
03 Dec - 04:01:25 10° WSW 04:09:11 53° NNW 04:16:08 10° NE daylight
03 Dec - 05:53:52 10° WNW 05:58:14 16° NNW 06:02:12 10° N daylight
03 Dec - 13:13:59 10° NNW 13:16:54 22° NNE 13:19:45 10° E night (unlit)
03 Dec - 15:01:18 10° W 15:04:41 39° SSW 15:08:19 10° SE night (unlit)
04 Dec - 00:09:34 10° SSW 00:14:41 19° SSE 00:19:59 10° ESE daylight
04 Dec - 01:56:08 10° SW 02:03:59 57° SSE 02:11:42 10° ENE daylight
04 Dec - 03:45:20 10° WSW 03:53:04 49° NNW 04:00:07 10° NE daylight
04 Dec - 05:38:03 10° WNW 05:42:16 16° NNW 05:46:10 10° N daylight
04 Dec - 12:57:54 10° NNW 13:01:09 27° NNE 13:04:16 10° E night (unlit)
04 Dec - 14:45:42 10° W 14:48:56 31° SSW 14:52:18 10° SE night (unlit)
04 Dec - 23:53:18 10° SSW 23:58:37 20° SSE 00:04:14 10° ESE daylight
05 Dec - 01:39:57 10° SW 01:47:48 64° SSE 01:55:42 10° ENE daylight
05 Dec - 03:29:18 10° W 03:36:56 44° NNW 03:44:03 10° NE daylight
05 Dec - 05:22:16 10° NW 05:26:18 15° NNW 05:30:05 10° N daylight
05 Dec - 12:41:50 10° NW 12:45:25 33° NNE 12:48:43 10° E night (unlit)
05 Dec - 14:30:07 10° W 14:33:11 25° SSW 14:36:17 10° SSE night (unlit)
05 Dec - 23:37:05 10° SSW 23:42:33 22° SSE 23:48:25 10° ESE daylight
06 Dec - 01:23:51 10° SW 01:31:37 70° SSE 01:39:38 10° ENE daylight
06 Dec - 03:13:18 10° W 03:20:47 41° NNW 03:27:55 10° NE daylight
06 Dec - 05:06:31 10° NW 05:10:19 14° NNW 05:13:57 10° N daylight
06 Dec - 12:25:46 10° NW 12:29:39 41° NNE 12:33:08 10° E visible
06 Dec - 14:14:33 10° W 14:17:24 21° SSW 14:20:13 10° SSE night (unlit)
06 Dec - 23:20:54 10° SSW 23:26:28 24° SSE 23:32:31 10° E daylight
07 Dec - 01:07:46 10° SW 01:15:25 77° SSE 01:23:32 10° ENE daylight
07 Dec - 02:57:21 10° W 03:04:38 37° NNW 03:11:45 10° NE daylight
07 Dec - 04:50:48 10° NW 04:54:21 13° NNW 04:57:46 10° N daylight
07 Dec - 10:23:38 10° N 10:25:18 12° NNE 10:26:53 10° NE daylight
07 Dec - 12:09:41 10° NW 12:13:52 52° NNE 12:17:31 10° ESE visible
07 Dec - 13:59:01 10° WSW 14:01:36 18° SSW 14:04:08 10° SSE night (unlit)
07 Dec - 23:04:47 10° SSW 23:10:22 26° SSE 23:16:34 10° E daylight
08 Dec - 00:51:43 10° WSW 00:59:13 85° SSE 01:07:22 10° ENE daylight
08 Dec - 02:41:27 10° W 02:48:29 34° NNW 02:55:31 10° NE daylight
08 Dec - 04:35:09 10° NW 04:38:23 13° NNW 04:41:31 10° N daylight
08 Dec - 10:06:44 10° NNW 10:09:32 14° NNE 10:12:04 10° NE daylight
08 Dec - 11:53:35 10° NW 11:58:05 65° NNE 12:01:53 10° ESE visible
08 Dec - 13:43:30 10° WSW 13:45:47 15° SSW 13:47:59 10° S night (unlit)
08 Dec - 22:48:42 10° SSW 22:54:15 28° SSE 23:00:34 10° E daylight
09 Dec - 00:35:44 10° WSW 00:43:01 87° NNW 00:51:09 10° ENE daylight
09 Dec - 02:25:35 10° W 02:32:21 31° NNW 02:39:14 10° NNE daylight
09 Dec - 04:19:33 10° NW 04:22:24 12° NNW 04:25:12 10° N daylight
09 Dec - 09:50:04 10° NNW 09:53:43 18° NNE 09:56:55 10° ENE daylight
09 Dec - 11:37:28 10° WNW 11:42:15 80° NNE 11:46:12 10° ESE visible
09 Dec - 13:28:03 10° WSW 13:29:57 13° SSW 13:31:47 10° S visible
09 Dec - 22:32:39 10° SSW 22:38:09 30° SSE 22:44:31 10° E daylight
10 Dec - 00:19:47 10° WSW 00:26:51 79° NNW 00:34:53 10° NE daylight
10 Dec - 02:09:47 10° W 02:16:13 28° NNW 02:22:54 10° NNE daylight
10 Dec - 04:04:03 10° NNW 04:06:25 11° NNW 04:08:47 10° N daylight
10 Dec - 09:33:30 10° NNW 09:37:52 21° NNE 09:41:37 10° ENE daylight
10 Dec - 11:21:20 10° WNW 11:26:23 85° SSW 11:30:30 10° ESE visible
10 Dec - 13:12:41 10° SW 13:14:06 11° SSW 13:15:28 10° SSW visible
10 Dec - 22:16:39 10° SSW 22:22:03 33° SSE 22:28:26 10° E daylight
11 Dec - 00:03:53 10° WSW 00:10:41 71° NNW 00:18:34 10° NE daylight
11 Dec - 01:54:02 10° WNW 02:00:06 25° NNW 02:06:31 10° NNE daylight
11 Dec - 03:48:42 10° NNW 03:50:27 11° NNW 03:52:12 10° N daylight
11 Dec - 07:32:05 10° N 07:32:18 10° NNE 07:32:31 10° NNE daylight
11 Dec - 09:17:00 10° NNW 09:22:00 26° NNE 09:26:13 10° E daylight
11 Dec - 11:05:12 10° WNW 11:10:30 72° SSW 11:14:46 10° SE visible
11 Dec - 12:57:43 10° SW 12:58:13 10° SSW 12:58:44 10° SSW visible
11 Dec - 22:00:40 10° SSW 22:05:57 36° SSE 22:12:18 10° E daylight
11 Dec - 23:48:02 10° WSW 23:54:32 63° NNW 00:02:13 10° NE daylight
12 Dec - 01:38:21 10° WNW 01:44:02 23° NNW 01:50:04 10° NNE daylight
12 Dec - 03:33:51 10° NNW 03:34:29 10° NNW 03:35:08 10° N daylight
12 Dec - 07:13:57 10° N 07:16:24 12° NNE 07:18:44 10° NE daylight
12 Dec - 09:00:30 10° NW 09:06:05 30° NNE 09:10:43 10° E daylight
12 Dec - 10:49:03 10° WNW 10:54:34 62° SSW 10:58:59 10° SE visible
12 Dec - 21:44:43 10° SW 21:49:53 39° SSE 21:56:09 10° E visible
12 Dec - 23:32:13 10° WSW 23:38:25 56° NNW 23:45:50 10° NE daylight
